Powrót do katalogu

DELTA 2 R/B(2)

AktywnyHEO
NORAD 27850·ROCKET BODY·🇺🇸 United States

Wystrzelony Jul 8, 2003 z Cape Canaveral Space Force Station

Loading…

Następne Przeloty (najbliższe 24 godziny)

TLE

NieaktualneSource: Space-Track

Epoka: Jul 8, 2003, 04:33 UTC

1 27850U 03032B   03189.18962002 +.00000128 -26276-6 +00000-0 0  9990
2 27850 029.4018 147.7530 3267297 036.1096 001.5763 09.06835346000002

Śledź DELTA 2 R/B(2) w czasie rzeczywistym z AllMySat

Download on the App Store